Regional Weather Roundup
Issued by NWS

Home | Current Version | Previous Version | Graphics & Text | Print | Product List | Glossary On
Versions: 1 2 3 4 5 6 7 8 9 10 11 12 13 14 15 16 17 18 19 20 21 22 23 24 25 26 27 28 29 30 31 32 33 34 35 36 37 38 39 40 41 42 43 44 45 46 47 48 49 50
000
ASUS43 KOAX 102002
RWRNE

WEATHER ROUNDUP FOR NEBRASKA
NATIONAL WEATHER SERVICE OMAHA NE
200 PM CST SAT DEC 10 2016

NOTES: SATELLITE DATA IS BEING USED TO AUGMENT CLOUD COVER ABOVE
       12000 FEET.
       "FAIR" INDICATES FEW OR NO CLOUDS BELOW 12,000 FEET WITH NO
       SIGNIFICANT WEATHER AND/OR OBSTRUCTIONS TO VISIBILITY.

  * THESE STATIONS DO NOT REPORT WEATHER SUCH AS RAIN...SNOW OR FOG.

NEZ001>004-019>022-054>056-102100-
NEBRASKA PANHANDLE

CITY           SKY/WX    TMP DP  RH WIND       PRES   REMARKS
SCOTTSBLUFF    CLOUDY    25  17  72 E3        29.74F
ALLIANCE       CLOUDY    28  20  71 S8        29.74F WCI  20
CHADRON        CLOUDY    16   8  71 NE3       29.76F
SIDNEY         CLOUDY    33  23  66 S8        29.76F WCI  26
$$

NEZ057>060-069>072-079>082-102100-
SOUTHWEST NEBRASKA

CITY           SKY/WX    TMP DP  RH WIND       PRES   REMARKS
NORTH PLATTE   CLOUDY    31  20  63 S10       29.88F WCI  22
IMPERIAL       CLOUDY    29  22  75 S12       29.84F WCI  19
LEXINGTON      CLOUDY    29  20  68 S14       29.92F WCI  18
MCCOOK         CLOUDY    30  23  75 S15       29.88F WCI  19
OGALLALA       CLOUDY    28  22  76 S5        29.83F WCI  23
$$

NEZ005>010-023>029-035>040-094-102100-
NORTH CENTRAL NEBRASKA

CITY           SKY/WX    TMP DP  RH WIND       PRES   REMARKS
VALENTINE      CLOUDY    16  11  80 NE9       29.87F WCI   4
AINSWORTH      CLOUDY    24  20  84 S12       29.89F WCI  13
BROKEN BOW     CLOUDY    28  18  66 S20G26    29.89F WCI  15
O`NEILL        CLOUDY    25  19  80 SE16G22   29.96F WCI  12
ORD            CLOUDY    30  17  58 S17G25    29.92F WCI  18
THEDFORD       CLOUDY    28  21  75 S8        29.86F WCI  20
$$

NEZ041-046>049-061>064-073>077-083>087-102100-
SOUTH CENTRAL NEBRASKA

CITY           SKY/WX    TMP DP  RH WIND       PRES   REMARKS
GRAND ISLAND   CLOUDY    31  20  63 S18       29.99F WCI  19
AURORA         CLOUDY    31  18  57 SE16      30.02F WCI  20
HASTINGS       CLOUDY    32  18  56 S18G24    30.01F WCI  20
HEBRON         CLOUDY    35  17  49 S15       30.05F WCI  25
HOLDREGE       CLOUDY    31  20  63 S20       29.94F WCI  19
KEARNEY *      CLOUDY    32  18  55 S16       29.95F WCI  21
YORK           CLOUDY    32  16  51 SE14G20   30.04F WCI  22
$$

NEZ011>018-030>034-042>045-102100-
NORTHEAST NEBRASKA

CITY           SKY/WX    TMP DP  RH WIND       PRES   REMARKS
NORFOLK        CLOUDY    25  19  78 E14G23    30.04F WCI  13
ALBION         CLOUDY    29  19  66 SE17G23   30.00F WCI  17
BLAIR          CLOUDY    29  19  65 SE9       30.13F WCI  21
FREMONT        CLOUDY    29  19  64 E15       30.12F WCI  18
TEKAMAH        CLOUDY    26  20  77 E14       30.16F WCI  14
WAYNE          CLOUDY    24  20  83 SE18      30.09F WCI  10
$$

NEZ050>053-065>068-078-088>093-102100-
SOUTHEAST NEBRASKA

CITY           SKY/WX    TMP DP  RH WIND       PRES   REMARKS
LINCOLN        CLOUDY    32  16  51 SE16      30.12F WCI  21
OMAHA EPPLEY   CLOUDY    30  15  53 SE14      30.17F WCI  19
BEATRICE       CLOUDY    34  17  50 SE14G20   30.09F WCI  24
FALLS CITY     CLOUDY    33  16  49 SE13      30.17F WCI  24
NEBRASKA CITY  CLOUDY    32  13  45 SE10      30.15F WCI  23
PLATTSMOUTH    CLOUDY    30  12  48 SE12G18   30.15F WCI  20
$$

NEZ044-045-051>053-067-102100-
OMAHA AREA

CITY           SKY/WX    TMP DP  RH WIND       PRES   REMARKS
OMAHA EPPLEY   CLOUDY    30  15  53 SE14      30.17F WCI  19
BLAIR          CLOUDY    29  19  65 SE9       30.13F WCI  21
FREMONT        CLOUDY    29  19  64 E15       30.12F WCI  18
MILLARD        CLOUDY    32  17  53 SE12      30.15F WCI  23
PLATTSMOUTH    CLOUDY    30  12  48 SE12G18   30.15F WCI  20
WAHOO          CLOUDY    31  16  53 SE16      30.12F WCI  20
$$




USA.gov is the U.S. government's official web portal to all federal, state and local government web resources and services.